AirNav   Phillips 66 Aviation Fuel
 
 1620 users online  

4G2 Hamburg Inc Airport
Hamburg, New York, USA

GOING TO HAMBURG?


FAA INFORMATION EFFECTIVE 11 OCTOBER 2018

Location

FAA Identifier: 4G2
Lat/Long: 42-42-03.2130N / 078-54-53.1250W
42-42.053550N / 078-54.885417W
42.7008925 / -78.9147569
(estimated)
Elevation: 751 ft. / 228.9 m (surveyed)
Variation: 10W (1985)
From city: 4 miles W of HAMBURG, NY
Time zone: UTC -4 (UTC -5 during Standard Time)
Zip code: 14085

Airport Operations

Airport use: Open to the public
Control tower: no
ARTCC: CLEVELAND CENTER
FSS: BUFFALO FLIGHT SERVICE STATION
NOTAMs facility: BUF (NOTAM-D service available)
Attendance: UNATNDD
Wind indicator: yes
Segmented circle: no
Lights: ACTVT LIRL RWY 01/19 - CTAF.

Airport Communications

CTAF/UNICOM: 122.8
WX ASOS at BUF (16 nm NE): PHONE 716-635-0532
  • CD THRU FLT SVCS 1-888-766-8267.

Nearby radio navigation aids

VOR radial/distance  VOR name  Freq  Var
BUFr229/18.1BUFFALO VOR/DME116.4008W
JHWr024/32.1JAMESTOWN VOR/DME114.7007W

 
NDB name  Hdg/Dist  Freq  Var  ID
PLAZZ212/11.220409WGB --. -...

Airport Services

Fuel available: 100LL MOGAS
Parking: tiedowns
Airframe service: MINOR
Powerplant service: MINOR

Runway Information

Runway 1/19

Dimensions: 2465 x 30 ft. / 751 x 9 m
Surface: asphalt, in fair condition
Runway edge lights: non-standard
NSTD LIRL DUE TO PLACEMENT.
RUNWAY 1  RUNWAY 19
Gradient: 0.6%0.6%
Traffic pattern: leftleft
Displaced threshold: 462 ft.456 ft.
Markings: basic, in fair conditionbasic, in fair condition
Obstructions: 66 ft. trees, 668 ft. from runway, 7:1 slope to clear
RY 01 HAS +15 FT ROAD, PARALLEL TO RY, 80 FT LEFT AND 15 FT ROAD PERPENDICULAR TO RY, 75 FT FM RY END; +27 FT POLE, 128 FT FM RY END, 91 FT LEFT; +42 FT TREE, 147 FT FM RY END, 118 FT LEFT. +32 FT POLE, 133 FT FM RWY END, 120 FT LEFT; +33 FT POLE, 70 FT FM RY END, 117 FT LEFT.
19 ft. pole, 200 ft. from runway, 116 ft. left of centerline
RY 19 HAS +15 FT ROAD PARALLEL TO RY, 90 FT RIGHT; +15 ROAD ALSO CROSSES EXTDD RY CNTRLN 125 FT FM RY END.

Airport Ownership and Management from official FAA records

Ownership: Privately-owned
Owner: HAMBURG ARPT INC
6765 HELTZ ROAD
LAKEVIEW, NY 14085
Phone 716-627-2440
Manager: ROD & LARRY WALSH
HELTZ ROAD
LAKEVIEW, NY 14085
Phone 716-627-2440

Airport Operational Statistics

Aircraft based on the field: 29
Single engine airplanes: 25
Helicopters: 1
Ultralights: 3
    
Aircraft operations: avg 33/day *
83% local general aviation
17% transient general aviation
* for 12-month period ending 14 August 2018

Additional Remarks

PLINES 120'W OF RWY PARALLEL TO HELTZ RD; RWY 19 PLINES 1350' FROM END OF RWY & EXTENDS ALONG E SIDE OF HELTZ RD.
TIE DOWN AREA AVBL EAST OF RWY 19 END.
ULTRA-LGT ACFT ON & INVOF ARPT.
RWY 01 :+26' POLE, 139' FRM THLD, 94' LT.;+30' POLE,143' FRM THLD, 121' LT.;+33' POLE, 79' FRM THLD, 120' LT., +60' TREES PENETRATE LT. LATRL, TRANS. SURF., 156' LT.;+22' TREES, PARALLEL TO RWY, 110' LT.;+40'-70' TREES PENETRATE LT. LATRL. TRANS. SURF.,130'-180' LT.

Instrument Procedures

There are no published instrument procedures at 4G2.

Some nearby airports with instrument procedures:

9G0 - Buffalo Airfield (13 nm NE)
KBUF - Buffalo Niagara International Airport (16 nm NE)
KDKK - Chautauqua County/Dunkirk Airport (20 nm SW)
KIAG - Niagara Falls International Airport (24 nm N)
0G0 - North Buffalo Suburban Airport (26 nm N)
 
Loc | Ops | Rwys | IFR | FBO | Links
Com | Nav | Svcs | Stats | Notes


 
Area around 4G2 (Hamburg Inc Airport)
 
Road maps at: MapQuest Bing Google
 
Aerial photo
WARNING: Photo may not be current or correct
Aerial photo of 4G2 (Hamburg Inc Airport)
Do you have a better or more recent aerial photo of Hamburg Inc Airport that you would like to share? If so, please send us your photo.

 
Sectional chart

 
Airport distance calculator
Flying to Hamburg Inc Airport? Find the distance to fly.

From to 4G2

Sunrise and sunset
Times for 16-Oct-2018
 Local
(UTC-4)
 Zulu
(UTC)
Morning civil twilight07:0311:03
Sunrise07:3111:31
Sunset18:3122:31
Evening civil twilight19:0023:00

Current date and time
Zulu (UTC)  16-Oct-2018 19:08:18
Local (UTC-4)  16-Oct-2018 15:08:18
 
METAR
KBUF 
16nm NE 
161854Z 20014G21KT 10SM BKN026 BKN034 BKN110 BKN220 09/03 A3002 RMK AO2 SLP170 T00890033
CWPC 
18nm NW 
161800Z AUTO 26024G29KT 10/04 RMK AO1 PK WND 27029/1757 SLP176 T00990039 58039
KDKK 
20nm SW 
161853Z AUTO 23010G19KT 10SM BKN043 OVC049 11/03 A3005 RMK AO2 PK WND 21027/1817 SLP180 T01060028
KIAG 
25nm N 
161853Z 24019G30KT 10SM SCT045 12/03 A3000 RMK AO2 PK WND 24030/1848 SLP166 T01170028
CYSN 
32nm N 
161800Z 24016G25KT 15SM SCT045 12/02 A3002 RMK SC3 PRESFR SLP170
TAF
KBUF 
16nm NE 
161720Z 1618/1718 24015G25KT P6SM OVC040 FM162100 24017G30KT P6SM BKN040 FM170400 24017G30KT P6SM OVC070 FM171400 28017G26KT P6SM BKN050
NOTAMs
Click for the latest NOTAMs
NOTAMs are issued by the DoD/FAA and will open in a separate window not controlled by AirNav.

 

 
 

Would you like to see your business listed on this page?

 If your business provides an interesting product or service to pilots, flight crews, aircraft, or users of the Hamburg Inc Airport, you should consider listing it here.  To start the listing process, click on the button below
 
Add a business
 

Other Pages about Hamburg Inc Airport

Update a link
 
Copyright © AirNav, LLC. All rights reserved. Privacy Policy  Contact